Home   Weather   Macquarie Island   Past weeks

Flag for Australia Past Weather in Macquarie Island, Tasmania, Australia — Yesterday and Last 2 Weeks

Now
42 °F

Quite cool.


Feels Like: 33 °F
Forecast: 43 / 45 °F
Wind: 21 mph from North

Location: Macquarie Island

Current Time: Sep 26, 2016 at 2:54:47 AM

Latest Report: Sep 26, 2016 at 2:00 AM


Visibility: N/A

Pressure: 29.58 "Hg

Humidity: 87%

Dew Point: 39 °F

Location of Macquarie IslandLocation

Past Weather in Macquarie Island — Graph

°F

Macquarie Island Temperature Yesterday

Maximum temperature yesterday: 45 °F (at 1:00 PM)
Minimum temperature yesterday: 41 °F (at 1:00 AM)
Average temperature yesterday: 42 °F

High & Low Weather Summary for the Past Weeks

 TemperatureHumidityPressure
High45 °F (Sep 25, 1:00 PM)96% (Sep 19, 7:00 PM)30.16 "Hg (Sep 19, 7:00 PM)
Low36 °F (Sep 17, 8:00 PM)55% (Sep 12, 2:00 PM)29.12 "Hg (Sep 14, 4:00 AM)
Average41 °F84%29.66 "Hg
* Reported Sep 11 1:00 AM — Sep 26 1:00 AM, Macquarie Island, Weather by CustomWeather, © 2016

Note: Actual official high and low records may vary slightly from our data, if they occured in-between our weather recording intervals... More about our weather records

Advertising

Macquarie Island Weather History for the Previous 24 Hours

Scroll right to see more
 ConditionsComfort  
Time TempWeatherWind HumidityBarometerVisibility
1:00 AM
Mon, Sep 26
42 °FQuite cool.17 mph89%29.61 "HgN/A
11:00 PM
Sun, Sep 25
42 °FQuite cool.20 mph94%29.65 "HgN/A
10:00 PM42 °FDrizzle. Low clouds.20 mph93%29.68 "Hg1 mi
8:00 PM42 °FQuite cool.21 mph93%29.70 "HgN/A
7:00 PM42 °FFog.21 mph94%29.71 "Hg6 mi
5:00 PM43 °FQuite cool.20 mph92%29.72 "HgN/A
4:00 PM43 °FLow clouds.18 mph92%29.74 "Hg9 mi
2:00 PM44 °FQuite cool.22 mph92%29.75 "HgN/A
1:00 PM45 °FLow clouds.20 mph90%29.77 "Hg16 mi
11:00 AM43 °FQuite cool.17 mph94%29.78 "HgN/A
10:00 AM43 °FLow clouds.21 mph94%29.80 "Hg16 mi
8:00 AM42 °FQuite cool.15 mph95%29.81 "HgN/A
7:00 AM42 °FQuite cool.24 mph95%29.81 "HgN/A
5:00 AM42 °FQuite cool.10 mph96%29.82 "HgN/A
4:00 AM42 °FQuite cool.12 mph94%29.83 "HgN/A
2:00 AM41 °FQuite cool.18 mph95%29.83 "HgN/A
Weather by CustomWeather, © 2016

See weather overviewHow to use our weather pages